• In Hungary
  • List of Countries
  • For 7 days
  • Water Temperature
  • Satellite Maps
  • Weather Map
  • News
  • Weather Widgets
  • user-avatar
    Login

    Hourly Weather Ostrowek

    Today, 25 February, Sunday

    Time Temperature Precipitation Wind Pressure Humidity
    00:00 -16°C° 0 mm 4 mps 755 mmHg 83%
    01:00 -16°C° 0 mm 4 mps 755 mmHg 84%
    02:00 -17°C° 0 mm 4 mps 756 mmHg 86%
    03:00 -17°C° 0 mm 4 mps 755 mmHg 88%
    04:00 -16°C° 0 mm 3 mps 755 mmHg 89%
    05:00 -16°C° 0 mm 3 mps 755 mmHg 90%
    06:00 -16°C° 0 mm 3 mps 755 mmHg 90%
    07:00 -17°C° 0 mm 3 mps 756 mmHg 90%
    08:00 -17°C° 0 mm 3 mps 756 mmHg 90%
    09:00 -16°C° 0 mm 3 mps 756 mmHg 85%
    10:00 -16°C° 0 mm 3 mps 756 mmHg 81%
    11:00 -15°C° 0 mm 3 mps 756 mmHg 77%
    12:00 -14°C° 0 mm 3 mps 756 mmHg 74%
    13:00 -14°C° 0 mm 3 mps 755 mmHg 70%
    14:00 -13°C° 0 mm 3 mps 755 mmHg 67%
    15:00 -13°C° 0 mm 3 mps 755 mmHg 68%
    16:00 -13°C° 0 mm 3 mps 755 mmHg 69%
    17:00 -13°C° 0 mm 3 mps 755 mmHg 70%
    18:00 -14°C° 0 mm 3 mps 755 mmHg 73%
    19:00 -14°C° 0 mm 3 mps 755 mmHg 76%
    20:00 -15°C° 0 mm 3 mps 755 mmHg 78%
    21:00 -15°C° 0 mm 3 mps 755 mmHg 79%
    22:00 -16°C° 0 mm 3 mps 755 mmHg 80%
    23:00 -16°C° 0 mm 3 mps 755 mmHg 81%

    Tomorrow, 26 February, Monday

    Time Temperature Precipitation Wind Pressure Humidity
    00:00 -16°C° 0 mm 3 mps 755 mmHg 82%
    01:00 -16°C° 0 mm 2 mps 755 mmHg 83%
    02:00 -16°C° 0 mm 2 mps 755 mmHg 83%
    03:00 -16°C° 0 mm 2 mps 755 mmHg 84%
    04:00 -16°C° 0 mm 2 mps 755 mmHg 85%
    05:00 -17°C° 0 mm 2 mps 755 mmHg 85%
    06:00 -17°C° 0 mm 2 mps 755 mmHg 86%
    07:00 -17°C° 0 mm 2 mps 755 mmHg 86%
    08:00 -17°C° 0 mm 2 mps 755 mmHg 87%
    09:00 -16°C° 0 mm 2 mps 755 mmHg 82%
    10:00 -15°C° 0 mm 2 mps 755 mmHg 78%
    11:00 -15°C° 0 mm 2 mps 755 mmHg 73%
    12:00 -14°C° 0 mm 2 mps 754 mmHg 71%
    13:00 -13°C° 0 mm 2 mps 754 mmHg 68%
    14:00 -13°C° 0 mm 2 mps 754 mmHg 65%
    15:00 -12°C° 0 mm 2 mps 754 mmHg 66%
    16:00 -12°C° 0 mm 2 mps 753 mmHg 67%
    17:00 -12°C° 0 mm 2 mps 753 mmHg 68%
    18:00 -13°C° 0 mm 2 mps 753 mmHg 72%
    19:00 -13°C° 0 mm 2 mps 753 mmHg 75%
    20:00 -12°C° 0 mm 1 mps 753 mmHg 79%
    21:00 -12°C° 0 mm 1 mps 753 mmHg 81%
    22:00 -12°C° 0 mm 1 mps 753 mmHg 82%
    23:00 -13°C° 0 mm 1 mps 753 mmHg 84%

    Day after tomorrow, 27 February, Tuesday

    Time Temperature Precipitation Wind Pressure Humidity
    00:00 -13°C° 0 mm 1 mps 753 mmHg 84%
    01:00 -13°C° 0 mm 1 mps 753 mmHg 85%
    02:00 -13°C° 0 mm 1 mps 753 mmHg 86%
    03:00 -16°C° 0 mm 2 mps 753 mmHg 86%
    04:00 -16°C° 0 mm 2 mps 753 mmHg 86%
    05:00 -16°C° 0 mm 2 mps 753 mmHg 86%
    06:00 -17°C° 0 mm 3 mps 753 mmHg 86%
    07:00 -18°C° 0 mm 3 mps 753 mmHg 85%
    08:00 -18°C° 0 mm 3 mps 753 mmHg 85%
    09:00 -18°C° 0 mm 4 mps 754 mmHg 81%
    10:00 -17°C° 0 mm 4 mps 754 mmHg 76%
    11:00 -18°C° 0 mm 5 mps 754 mmHg 72%
    12:00 -17°C° 0 mm 5 mps 754 mmHg 71%
    13:00 -17°C° 0 mm 5 mps 754 mmHg 69%
    14:00 -15°C° 0 mm 5 mps 754 mmHg 68%
    15:00 -16°C° 0 mm 6 mps 754 mmHg 70%
    16:00 -17°C° 0 mm 6 mps 755 mmHg 71%
    17:00 -17°C° 0 mm 6 mps 755 mmHg 73%
    18:00 -17°C° 0 mm 6 mps 755 mmHg 75%
    19:00 -18°C° 0 mm 6 mps 755 mmHg 77%
    20:00 -20°C° 0 mm 6 mps 756 mmHg 79%
    21:00 -20°C° 0 mm 6 mps 756 mmHg 79%
    22:00 -20°C° 0 mm 6 mps 756 mmHg 80%
    23:00 -20°C° 0 mm 6 mps 756 mmHg 80%

    28 February, Wednesday

    Time Temperature Precipitation Wind Pressure Humidity
    00:00 -20°C° 0 mm 6 mps 756 mmHg 81%
    01:00 -20°C° 0 mm 6 mps 756 mmHg 82%
    02:00 -20°C° 0 mm 6 mps 756 mmHg 83%
    03:00 -20°C° 0.1 mm 6 mps 756 mmHg 83%
    04:00 -20°C° 0.1 mm 6 mps 756 mmHg 83%
    05:00 -20°C° 0.1 mm 7 mps 756 mmHg 84%
    06:00 -20°C° 0.1 mm 7 mps 756 mmHg 83%
    07:00 -20°C° 0.1 mm 7 mps 756 mmHg 83%
    08:00 -21°C° 0.1 mm 7 mps 756 mmHg 82%
    09:00 -20°C° 0.1 mm 7 mps 756 mmHg 80%
    10:00 -20°C° 0.1 mm 7 mps 756 mmHg 78%
    11:00 -19°C° 0.1 mm 7 mps 756 mmHg 77%
    12:00 -18°C° 0.1 mm 6 mps 755 mmHg 76%
    13:00 -17°C° 0.1 mm 6 mps 755 mmHg 76%
    14:00 -17°C° 0.1 mm 6 mps 755 mmHg 75%
    15:00 -17°C° 0.1 mm 6 mps 755 mmHg 77%
    16:00 -17°C° 0.1 mm 6 mps 755 mmHg 79%
    17:00 -16°C° 0.1 mm 6 mps 754 mmHg 80%
    18:00 -17°C° 0.1 mm 6 mps 754 mmHg 82%
    19:00 -17°C° 0.1 mm 6 mps 754 mmHg 83%
    20:00 -17°C° 0.1 mm 5 mps 754 mmHg 85%
    21:00 -17°C° 0.1 mm 5 mps 754 mmHg 85%
    22:00 -17°C° 0.1 mm 5 mps 754 mmHg 85%
    23:00 -17°C° 0.1 mm 5 mps 754 mmHg 85%

    1 March, Thursday

    Time Temperature Precipitation Wind Pressure Humidity
    00:00 -17°C° 0.1 mm 4 mps 754 mmHg 85%
    01:00 -17°C° 0.1 mm 4 mps 754 mmHg 86%
    02:00 -17°C° 0.1 mm 4 mps 754 mmHg 86%
    03:00 -17°C° 0.1 mm 4 mps 754 mmHg 86%
    04:00 -17°C° 0.1 mm 4 mps 754 mmHg 87%
    05:00 -17°C° 0.1 mm 4 mps 754 mmHg 87%
    06:00 -17°C° 0.1 mm 4 mps 754 mmHg 87%
    07:00 -18°C° 0.1 mm 4 mps 754 mmHg 87%
    08:00 -18°C° 0.1 mm 4 mps 754 mmHg 87%
    09:00 -17°C° 0 mm 4 mps 754 mmHg 84%
    10:00 -16°C° 0 mm 4 mps 754 mmHg 80%
    11:00 -16°C° 0 mm 4 mps 754 mmHg 77%
    12:00 -14°C° 0 mm 3 mps 754 mmHg 75%
    13:00 -14°C° 0 mm 3 mps 753 mmHg 73%
    14:00 -13°C° 0 mm 3 mps 753 mmHg 71%
    15:00 -13°C° 0 mm 3 mps 753 mmHg 73%
    16:00 -13°C° 0 mm 3 mps 753 mmHg 75%
    17:00 -13°C° 0 mm 3 mps 753 mmHg 77%
    18:00 -14°C° 0 mm 3 mps 753 mmHg 80%
    19:00 -14°C° 0 mm 3 mps 753 mmHg 84%
    20:00 -13°C° 0 mm 2 mps 753 mmHg 87%
    21:00 -13°C° 0 mm 2 mps 752 mmHg 89%
    22:00 -14°C° 0 mm 2 mps 752 mmHg 91%
    23:00 -14°C° 0 mm 2 mps 752 mmHg 93%

    2 March, Friday

    Time Temperature Precipitation Wind Pressure Humidity
    00:00 -14°C° 0.1 mm 2 mps 751 mmHg 93%
    01:00 -14°C° 0.1 mm 2 mps 751 mmHg 94%
    02:00 -14°C° 0.1 mm 2 mps 751 mmHg 94%
    03:00 -14°C° 0.1 mm 2 mps 750 mmHg 94%
    04:00 -14°C° 0.1 mm 2 mps 750 mmHg 94%
    05:00 -12°C° 0.1 mm 1 mps 750 mmHg 95%
    06:00 -12°C° 0 mm 1 mps 749 mmHg 94%
    07:00 -11°C° 0 mm 1 mps 749 mmHg 94%
    08:00 -11°C° 0 mm 1 mps 748 mmHg 93%
    09:00 -12°C° 0 mm 2 mps 748 mmHg 89%
    10:00 -12°C° 0 mm 2 mps 748 mmHg 85%
    11:00 -10°C° 0 mm 2 mps 748 mmHg 81%
    12:00 -9°C° 0 mm 2 mps 748 mmHg 79%
    13:00 -9°C° 0 mm 2 mps 747 mmHg 77%
    14:00 -8°C° 0 mm 2 mps 747 mmHg 76%
    15:00 -8°C° 0 mm 2 mps 747 mmHg 77%
    16:00 -8°C° 0 mm 2 mps 746 mmHg 78%
    17:00 -8°C° 0 mm 2 mps 746 mmHg 79%
    18:00 -8°C° 0 mm 2 mps 746 mmHg 82%
    19:00 -9°C° 0 mm 3 mps 746 mmHg 84%
    20:00 -10°C° 0 mm 3 mps 746 mmHg 87%
    21:00 -10°C° 0 mm 3 mps 746 mmHg 88%
    22:00 -10°C° 0 mm 3 mps 746 mmHg 89%
    23:00 -12°C° 0 mm 3 mps 746 mmHg 90%
    Show more